Total_Precipitation_Accumulation
1.72 1.73 1.61 1.57 1.39 1.50 1.79 2.03 1.95 2.11 2.25 2.13 1.84 1.71 1.58 1.45 1.42 1.44 1.57 1.76 1.65 1.73 2.02 2.09 2.04 1.91 1.84 1.65 1.48 1.38 1.31 1.21 1.02 0.77 0.61 0.58 0.52 0.40 0.33 0.32 0.32 0.31 0.25
1.92 1.95 1.79 1.69 1.40 1.43 1.66 1.92 1.94 2.12 2.13 2.16 1.80 1.65 1.55 1.57 1.51 1.46 1.55 1.72 1.69 1.56 1.70 2.01 2.21 2.26 2.17 2.02 1.78 1.53 1.41 1.33 1.13 0.86 0.67 0.62 0.58 0.51 0.48 0.48 0.42 0.32 0.23
2.18 2.15 1.99 1.70 1.53 1.68 1.76 1.77 1.83 2.21 2.06 1.94 1.75 1.80 1.76 1.71 1.58 1.54 1.55 1.67 1.50 1.43 1.44 1.59 1.90 2.16 2.40 2.41 2.18 1.94 1.66 1.43 1.18 0.91 0.73 0.61 0.54 0.51 0.52 0.52 0.52 0.41 0.27
2.11 2.26 1.95 1.61 1.72 1.89 1.84 1.79 1.84 2.07 2.07 2.16 2.06 1.91 1.81 1.70 1.36 1.29 1.33 1.36 1.46 1.24 1.34 1.57 1.69 1.81 2.24 2.56 2.62 2.56 2.14 1.69 1.30 1.00 0.81 0.67 0.61 0.55 0.48 0.43 0.42 0.44 0.32
1.54 1.58 1.30 1.20 1.41 1.49 1.36 1.31 1.57 1.74 1.77 1.90 1.86 1.66 1.46 1.32 1.16 1.10 1.13 1.00 1.08 1.12 1.16 1.38 1.57 1.63 2.04 2.61 3.10 3.24 2.89 2.30 1.76 1.33 1.13 0.98 0.84 0.66 0.53 0.47 0.43 0.42 0.34
1.12 1.13 0.92 0.89 1.13 1.22 1.19 1.29 1.36 1.37 1.31 1.39 1.26 1.06 1.02 0.89 0.90 0.89 0.79 0.79 0.79 0.80 0.93 1.13 1.38 1.27 1.73 2.35 2.86 3.13 3.14 2.78 2.21 1.81 1.63 1.43 1.25 0.95 0.63 0.50 0.46 0.42 0.35
1.02 1.10 0.93 1.01 1.11 1.13 1.13 1.16 1.18 1.10 0.93 1.09 1.18 0.98 0.78 0.70 0.69 0.62 0.60 0.61 0.56 0.64 0.86 1.06 1.25 1.33 1.27 1.40 1.83 2.27 2.78 3.04 2.69 2.23 2.02 1.83 1.65 1.31 0.92 0.72 0.57 0.46 0.39
0.87 0.92 0.91 0.76 0.80 0.85 0.78 0.81 0.99 1.03 0.87 0.96 1.10 1.05 0.85 0.82 0.70 0.44 0.48 0.51 0.50 0.61 0.77 0.88 1.13 1.31 1.30 1.48 1.20 1.41 2.09 2.64 2.94 2.82 2.47 2.06 1.75 1.45 1.17 0.99 0.77 0.59 0.51
0.62 0.67 0.66 0.66 0.73 0.75 0.77 0.76 0.79 0.85 0.80 0.75 0.87 1.05 0.92 0.75 0.64 0.51 0.45 0.43 0.51 0.66 0.75 0.90 0.98 1.06 1.19 1.43 1.43 1.29 1.57 1.78 2.48 3.00 2.86 2.30 1.69 1.32 1.20 1.21 1.10 0.83 0.69
0.52 0.50 0.52 0.51 0.57 0.64 0.75 0.65 0.67 0.70 0.71 0.62 0.65 0.72 0.74 0.74 0.71 0.61 0.52 0.48 0.52 0.65 0.79 0.88 1.00 1.04 1.07 1.21 1.40 1.32 1.19 1.23 1.66 2.28 2.61 2.49 2.00 1.50 1.26 1.36 1.62 1.51 1.10
0.53 0.49 0.48 0.49 0.48 0.47 0.52 0.57 0.67 0.64 0.64 0.59 0.57 0.62 0.69 0.74 0.72 0.67 0.63 0.56 0.50 0.44 0.59 0.77 0.92 0.99 0.95 1.09 1.35 1.36 1.27 1.17 1.10 1.25 1.68 2.02 2.06 1.79 1.51 1.59 2.04 2.33 2.13
0.57 0.54 0.51 0.54 0.50 0.47 0.49 0.52 0.55 0.56 0.61 0.66 0.63 0.63 0.72 0.76 0.72 0.71 0.65 0.59 0.54 0.45 0.48 0.66 0.91 1.05 1.02 1.05 0.97 0.97 1.00 0.91 0.85 0.86 1.00 1.22 1.50 1.64 1.68 1.82 2.17 2.57 2.81
0.48 0.54 0.56 0.57 0.55 0.54 0.52 0.51 0.51 0.53 0.59 0.67 0.65 0.61 0.63 0.68 0.73 0.74 0.69 0.61 0.63 0.62 0.71 0.73 0.81 0.94 0.92 0.97 0.92 0.78 0.63 0.57 0.55 0.58 0.73 0.91 1.13 1.38 1.54 1.63 1.90 2.23 2.50
0.50 0.55 0.54 0.51 0.51 0.51 0.50 0.53 0.47 0.47 0.57 0.66 0.69 0.78 0.74 0.63 0.76 0.83 0.81 0.80 0.78 0.83 0.97 0.89 0.80 0.80 0.83 0.87 0.80 0.68 0.50 0.44 0.41 0.39 0.44 0.47 0.56 0.70 0.85 0.99 1.17 1.40 1.62
0.58 0.61 0.53 0.51 0.49 0.49 0.51 0.55 0.54 0.57 0.63 0.66 0.75 0.90 0.92 0.84 0.81 0.85 0.92 0.98 1.05 1.02 1.00 0.93 0.81 0.74 0.73 0.72 0.66 0.56 0.44 0.40 0.38 0.36 0.35 0.34 0.37 0.42 0.47 0.51 0.58 0.67 0.75
0.60 0.65 0.63 0.59 0.55 0.53 0.59 0.67 0.64 0.64 0.71 0.80 0.93 1.02 1.06 1.05 1.02 0.93 0.97 1.02 1.05 1.10 1.06 0.87 0.81 0.82 0.73 0.57 0.55 0.48 0.42 0.45 0.40 0.36 0.33 0.31 0.31 0.35 0.39 0.41 0.38 0.41 0.46
0.63 0.62 0.61 0.63 0.60 0.65 0.82 0.99 0.95 0.87 0.90 0.97 1.06 1.18 1.23 1.26 1.24 1.11 1.06 1.03 1.03 1.11 1.04 0.86 0.81 0.83 0.71 0.56 0.49 0.47 0.44 0.43 0.37 0.39 0.35 0.30 0.29 0.30 0.34 0.36 0.35 0.34 0.35
0.60 0.53 0.54 0.58 0.56 0.63 0.79 1.06 1.20 1.20 1.17 1.08 1.14 1.31 1.39 1.34 1.23 1.14 1.13 1.07 1.05 1.14 1.08 0.98 0.98 0.92 0.83 0.72 0.63 0.56 0.47 0.43 0.42 0.47 0.42 0.34 0.31 0.30 0.29 0.28 0.29 0.29 0.30
0.63 0.59 0.60 0.62 0.67 0.69 0.70 0.85 1.05 1.13 1.16 1.11 1.17 1.22 1.24 1.30 1.25 1.18 1.12 1.06 1.04 1.14 1.16 1.07 1.13 1.12 1.01 0.87 0.75 0.64 0.56 0.54 0.43 0.42 0.43 0.39 0.36 0.30 0.28 0.27 0.27 0.27 0.26
0.70 0.70 0.71 0.72 0.73 0.70 0.68 0.79 0.91 0.98 1.01 1.04 1.09 1.14 1.15 1.16 1.21 1.27 1.19 1.14 1.16 1.19 1.21 1.17 1.20 1.33 1.22 1.03 0.88 0.73 0.63 0.59 0.52 0.39 0.40 0.44 0.41 0.35 0.30 0.27 0.26 0.25 0.27
0.74 0.79 0.85 0.84 0.79 0.72 0.66 0.80 0.87 0.83 0.90 0.96 0.96 0.92 1.00 1.17 1.25 1.28 1.18 1.17 1.24 1.22 1.23 1.28 1.28 1.40 1.41 1.24 0.99 0.77 0.68 0.66 0.61 0.53 0.46 0.39 0.36 0.33 0.31 0.31 0.30 0.28 0.25
0.85 0.92 0.95 0.93 0.85 0.66 0.71 0.79 0.80 0.80 0.85 0.90 0.90 0.86 0.84 0.92 1.04 1.10 1.08 1.06 1.11 1.17 1.23 1.26 1.31 1.39 1.45 1.36 1.17 0.99 0.84 0.73 0.68 0.66 0.67 0.58 0.46 0.43 0.36 0.31 0.33 0.33 0.31
1.01 1.01 0.99 0.97 0.93 0.89 0.83 0.72 0.67 0.68 0.74 0.80 0.80 0.77 0.64 0.61 0.78 0.87 0.98 1.00 0.96 0.95 1.01 1.17 1.29 1.33 1.45 1.49 1.40 1.18 1.08 0.96 0.78 0.74 0.78 0.73 0.64 0.54 0.42 0.39 0.44 0.37 0.34
1.21 1.19 1.13 1.12 1.18 1.11 0.99 0.83 0.76 0.68 0.69 0.71 0.72 0.71 0.71 0.69 0.71 0.79 0.90 0.96 0.96 0.91 0.88 0.93 1.06 1.25 1.41 1.56 1.54 1.41 1.31 1.17 0.96 0.84 0.82 0.78 0.71 0.63 0.51 0.46 0.47 0.42 0.38
1.48 1.49 1.43 1.43 1.43 1.45 1.36 1.14 1.03 0.89 0.85 0.82 0.85 0.86 0.83 0.77 0.75 0.69 0.74 0.80 0.83 0.89 0.85 0.83 0.90 1.09 1.27 1.41 1.55 1.49 1.37 1.19 0.99 0.85 0.81 0.75 0.68 0.68 0.62 0.53 0.46 0.45 0.39
1.78 1.77 1.78 1.77 1.72 1.71 1.59 1.26 1.10 0.98 0.99 0.98 1.03 0.98 0.86 0.72 0.64 0.57 0.60 0.67 0.67 0.67 0.77 0.81 0.82 0.91 1.06 1.18 1.33 1.34 1.22 1.17 1.00 0.84 0.72 0.69 0.63 0.66 0.70 0.60 0.52 0.47 0.43